Tracking 25734 objects as of 28-May-2022
HD Live streaming from Space Station
objects crossing your sky now

PERSEUS M1

Track PERSEUS M1 now!
10-day predictions
PERSEUS M1 is classified as:


NORAD ID: 40039
Int'l Code: 2014-033AF
Perigee: 604.9 km
Apogee: 626.0 km
Inclination: 97.9 °
Period: 96.9 minutes
Semi major axis: 6986 km
RCS: Unknown
Launch date: June 19, 2014
Source: Commonwealth of Independent States (former USSR) (CIS)
Launch site: Orenburg, Russia (OREN)

Uplink (MHz):
Downlink (MHz): 400.160/400.170
Beacon (MHz):
Mode: 9600bps GFSK
Call sign: CQ
Status:

aabbcc
Your satellite tracking list
Your tracking list is empty




NASA's NSSDC Master Catalog

Two Line Element Set (TLE):
1 40039U 14033AF  22148.04259359  .00001043  00000-0  12341-3 0  9993
2 40039  97.8876  68.1802 0015048 139.2662 220.9682 14.86679820430484
Source of the keplerian elements: AFSPC